DW8163 Weather Reports


time (UTC)temp
C
wind
direction
speed
KPH
gust
KPH
rain 1hr
cm
rain 24hr
cm
rain mn
cm
humidity
%
barometer
mb
20260507123001 10 275 0.0 3.2 0.08 1.93 0.89 95 1008.5
20260507121502 9 325 0.0 1.6 0.13 1.93 0.89 95 1008.8
20260507120110 9 324 1.6 4.8 0.13 1.91 0.86 95 1009.0
20260507114639 9 324 1.6 4.8 0.10 1.88 0.84 95 1009.2
20260507113100 9 9 0.0 1.6 0.13 1.85 0.81 95 1008.7
20260507111602 9 282 0.0 4.8 0.08 1.80 0.76 95 1008.6
20260507110059 9 304 1.6 4.8 0.05 1.78 0.71 95 1008.7
20260507104557 9 307 0.0 4.8 0.05 1.78 0.71 95 1008.5
20260507103056 9 292 1.6 6.4 0.03 1.73 0.69 95 1008.6
20260507101603 9 16 1.6 8.0 0.05 1.73 0.69 95 1007.4
20260507100052 9 9 1.6 8.0 0.05 1.73 0.69 95 1007.6
20260507094552 9 298 1.6 8.0 0.08 1.73 0.69 95 1007.5
20260507093050 9 303 3.2 9.7 0.13 1.70 0.66 95 1007.7
20260507091549 10 258 1.6 11.3 0.13 1.68 0.64 95 1007.5
20260507090048 10 254 3.2 8.0 0.15 1.68 0.64 95 1007.3
20260507084555 10 291 1.6 8.0 0.23 1.65 0.61 95 1007.1
20260507083042 11 5 1.6 6.4 0.36 1.57 0.53 95 1007.1
20260507081543 11 360 1.6 14.5 0.46 1.55 0.51 95 1007.0
20260507080044 11 23 1.6 4.8 0.43 1.52 0.48 95 1007.0
20260507074539 11 288 3.2 11.3 0.33 1.42 0.38 95 1007.3
20260507073038 12 304 4.8 11.3 0.10 1.19 0.15 95 1007.8
20260507071536 12 281 0.0 0.0 0.00 1.09 0.05 96 1006.6
20260507070035 12 281 0.0 1.6 0.00 1.09 0.05 96 1006.2
20260507064535 11 281 0.0 1.6 0.00 1.09 0.05 96 1006.0
20260507063035 11 281 0.0 0.0 0.00 1.09 0.05 96 1006.4
20260507061533 11 281 0.0 4.8 0.00 1.09 0.05 95 1006.1
20260507060031 11 225 0.0 0.0 0.00 1.09 0.05 95 1006.0
20260507054535 11 225 1.6 4.8 0.00 1.09 0.05 95 1006.5
20260507053026 11 225 0.0 3.2 0.00 1.09 0.05 95 1007.1
20260507051526 11 224 0.0 3.2 0.03 1.09 0.05 95 1007.2
20260507050028 11 225 0.0 4.8 0.05 1.09 0.05 95 1007.3
20260507044523 11 241 0.0 0.0 0.05 1.09 0.05 95 1007.7
20260507043024 11 240 0.0 3.2 0.05 1.09 0.05 95 1007.2
20260507041520 11 240 0.0 3.2 0.03 1.07 0.03 95 1007.5
20260507040018 11 240 0.0 3.2 0.00 1.04 0.00 95 1007.4
20260507034516 11 240 0.0 4.8 0.00 1.04 1.04 95 1007.7
20260507033016 11 231 3.2 6.4 0.00 1.04 1.04 95 1007.7
20260507031515 11 215 1.6 6.4 0.00 1.04 1.04 95 1007.8
20260507030018 11 207 1.6 8.0 0.00 1.04 1.04 95 1007.8
20260507024514 11 248 0.0 9.7 0.00 1.04 1.04 95 1007.7
20260507023013 11 252 1.6 14.5 0.00 1.04 1.04 95 1007.9
20260507021512 11 199 4.8 14.5 0.00 1.04 1.04 95 1007.9
20260507020012 11 219 0.0 8.0 0.00 1.04 1.04 95 1008.0
20260507014513 11 217 1.6 8.0 0.00 1.04 1.04 95 1007.8
20260507013018 11 245 1.6 12.9 0.00 1.04 1.04 94 1008.0
20260507011512 11 257 4.8 16.1 0.00 1.04 1.04 95 1008.2
20260507010013 11 241 6.4 16.1 0.00 1.04 1.04 95 1008.4
20260507004508 11 263 4.8 16.1 0.00 1.04 1.04 95 1008.6
20260507003007 11 237 4.8 22.5 0.00 1.04 1.04 94 1008.3
20260507001509 11 232 8.0 16.1 0.00 1.04 1.04 94 1008.2
20260507000006 11 261 8.0 20.9 0.00 1.04 1.04 94 1008.1
20260506234505 11 240 8.0 17.7 0.00 1.04 1.04 95 1008.1
20260506233007 11 246 4.8 17.7 0.00 1.04 1.04 94 1008.2
20260506231504 11 223 1.6 11.3 0.05 1.04 1.04 94 1008.1
20260506230003 11 252 9.7 20.9 0.25 1.04 1.04 94 1008.2
20260506224502 11 247 4.8 19.3 0.48 1.04 1.04 94 1008.0
20260506223103 11 179 4.8 24.1 0.69 1.04 1.04 94 1008.0
20260506221611 11 172 4.8 12.9 0.71 0.99 0.99 94 1008.0
20260506220056 11 209 3.2 11.3 0.58 0.79 0.79 93 1008.2
20260506214556 11 215 4.8 11.3 0.36 0.56 0.56 93 1008.3
20260506213110 11 177 3.2 17.7 0.18 0.36 0.36 93 1008.7
20260506211550 11 217 4.8 22.5 0.15 0.28 0.28 92 1008.7
20260506210049 11 225 3.2 14.5 0.13 0.20 0.20 93 1008.8
20260506204547 12 207 3.2 12.9 0.15 0.20 0.20 92 1008.8
20260506203045 11 225 4.8 12.9 0.13 0.18 0.18 92 1008.9
20260506201543 12 211 3.2 11.3 0.10 0.13 0.13 91 1009.0
20260506200040 12 198 4.8 20.9 0.08 0.08 0.08 91 1009.1
20260506194538 12 216 3.2 11.3 0.05 0.05 0.05 91 1009.4
20260506193038 12 135 4.8 11.3 0.05 0.05 0.05 90 1009.5
20260506191534 13 186 3.2 11.3 0.03 0.03 0.03 89 1009.5
20260506190032 13 245 3.2 14.5 0.00 0.00 0.00 87 1009.8
20260506184544 13 268 8.0 19.3 0.00 0.00 0.00 84 1010.0
20260506183038 13 237 4.8 14.5 0.00 0.00 0.00 84 1010.1
20260506181539 13 230 6.4 20.9 0.00 0.00 0.00 83 1010.3
20260506180032 14 236 8.0 24.1 0.00 0.00 0.00 83 1010.4
20260506174526 13 217 6.4 22.5 0.00 0.00 0.00 83 1010.6
20260506173024 14 167 12.9 24.1 0.00 0.00 0.00 82 1010.9
20260506171523 14 319 9.7 22.5 0.00 0.00 0.00 81 1011.2
20260506170023 15 218 9.7 25.7 0.00 0.00 0.00 79 1011.1
20260506164525 16 119 8.0 33.8 0.00 0.00 0.00 79 1011.1
20260506163020 15 226 6.4 12.9 0.00 0.00 0.00 79 1011.5
20260506161518 15 158 8.0 33.8 0.00 0.00 0.00 80 1011.7
20260506160018 15 236 6.4 14.5 0.00 0.00 0.00 80 1012.0
20260506154517 15 235 6.4 20.9 0.00 0.00 0.00 80 1012.2
20260506153021 16 219 8.0 22.5 0.00 0.00 0.00 78 1012.2
20260506151516 17 232 4.8 24.1 0.00 0.00 0.00 77 1012.1
20260506150013 16 184 8.0 14.5 0.00 0.00 0.00 78 1012.2
20260506144516 16 212 4.8 20.9 0.00 0.00 0.00 78 1012.3
20260506143014 16 204 6.4 29.0 0.00 0.00 0.00 80 1012.1
20260506141510 15 242 9.7 30.6 0.00 0.00 0.00 79 1012.2
20260506140014 16 163 4.8 22.5 0.00 0.00 0.00 80 1012.0
20260506134507 16 215 4.8 24.1 0.00 0.00 0.00 80 1011.7
20260506133005 15 162 9.7 24.1 0.00 0.00 0.00 80 1012.3
20260506131503 15 191 4.8 27.4 0.00 0.00 0.00 81 1012.4
20260506130003 15 203 9.7 30.6 0.00 0.00 0.00 82 1012.3
20260506124608 15 131 4.8 20.9 0.00 0.00 0.00 83 1012.3